Date,TemperatureHighF,TemperatureAvgF,TemperatureLowF,DewpointHighF,DewpointAvgF,DewpointLowF,HumidityHigh,HumidityAvg,HumidityLow,PressureMaxIn,PressureMinIn,WindSpeedMaxMPH,WindSpeedAvgMPH,GustSpeedMaxMPH,PrecipitationSumIn
2013-3-1,59.5,43.9,28.2,20.7,14.9,7.0,45,32,20,29.97,29.86,9,3,9,0.00
2013-3-2,66.7,47.5,31.1,26.2,21.7,17.3,60,38,19,30.02,29.82,8,2,8,0.00
2013-3-3,66.2,51.8,35.6,24.7,18.4,1.6,49,30,8,29.82,29.56,12,3,12,0.00
2013-3-4,62.4,53.0,42.3,25.3,21.0,17.6,39,29,18,29.76,29.50,14,4,14,0.00
2013-3-5,65.3,46.8,29.8,25.2,18.5,13.7,57,35,16,29.92,29.76,8,2,8,0.00
2013-3-6,70.5,54.9,44.8,29.7,23.5,17.9,38,30,19,29.81,29.62,10,3,10,0.00
2013-3-7,75.2,55.8,36.9,26.8,19.6,14.4,45,26,13,29.72,29.57,10,3,10,0.00
2013-3-8,64.2,48.0,39.4,41.0,25.9,12.0,78,46,22,29.65,29.46,15,4,15,0.14
2013-3-9,45.3,38.7,33.1,34.0,24.9,18.5,78,58,36,29.63,29.46,12,4,12,0.02
2013-3-10,52.0,39.8,28.4,29.7,23.5,17.1,78,55,30,29.79,29.62,9,2,9,0.01
2013-3-11,65.3,47.3,32.7,25.3,18.7,12.0,53,34,15,29.81,29.66,11,3,11,0.00
2013-3-12,71.6,50.7,33.4,29.2,22.5,18.1,58,35,18,29.88,29.73,8,2,8,0.00
2013-3-13,71.6,53.2,35.6,31.0,23.4,16.1,60,34,17,29.98,29.84,7,2,7,0.00
2013-3-14,77.7,56.8,40.5,31.2,21.4,16.4,47,28,11,29.98,29.84,6,1,6,0.00
2013-3-15,83.1,60.0,41.9,28.0,19.2,13.0,37,23,8,29.86,29.63,7,2,7,0.00
2013-3-16,76.1,60.0,47.8,33.6,22.9,14.7,45,25,15,29.64,29.48,10,4,10,0.00
2013-3-17,70.2,55.0,42.3,36.7,22.1,-5.1,62,35,6,29.58,29.41,13,3,13,0.00
2013-3-18,68.4,51.8,36.0,18.6,10.0,4.0,36,20,9,29.67,29.54,12,3,12,0.00
2013-3-19,64.4,50.9,39.9,20.9,13.6,4.4,30,23,15,29.82,29.64,7,2,8,0.00
2013-3-20,67.8,50.1,30.9,26.5,19.5,11.9,51,31,18,29.87,29.56,9,2,9,0.00
2013-3-21,72.0,57.8,47.1,33.2,20.2,0.6,45,27,6,29.56,29.35,15,4,15,0.00
2013-3-22,68.5,51.7,35.1,27.1,15.2,8.6,38,25,12,29.51,29.34,15,4,15,0.00
2013-3-23,48.9,40.1,30.2,25.0,5.8,-11.3,51,27,10,29.71,29.42,17,6,17,0.00
2013-3-24,55.0,39.2,23.4,3.3,-2.1,-9.5,30,18,12,29.74,29.56,14,4,14,0.00
2013-3-25,59.2,41.0,23.4,14.4,7.8,-1.7,44,26,16,29.81,29.68,10,2,10,0.00
2013-3-26,70.7,49.5,29.1,19.4,12.2,5.9,42,24,12,29.81,29.62,14,4,14,0.00
2013-3-27,76.1,59.3,43.9,24.8,14.9,9.4,29,18,10,29.74,29.64,11,3,11,0.00
2013-3-28,75.6,60.2,45.1,24.3,17.3,10.6,31,20,10,29.79,29.69,12,2,12,0.00
2013-3-29,80.1,59.9,45.0,28.6,21.8,17.2,40,25,11,29.84,29.71,10,2,10,0.00
2013-3-30,76.3,58.9,41.0,28.6,22.1,17.1,43,26,12,29.82,29.66,9,2,9,0.01
2013-3-31,79.2,61.6,48.6,35.8,28.3,23.6,44,30,17,29.78,29.64,9,2,9,0.00